STARLINK-34711 (64912 NORAD) Tracking and Keplerian Element Data

This shows tracking and keplerian element data for the satellite.

Feedback or suggestion? Click here.




ElementValue
Catalog64912
NameSTARLINK-34711
Epoch Orbit594
Epoch Day354.25003472
Epoch Year2025
RAAN358.0779
Inclination53.1585
Eccentricity0.0001331
Argument of Perigee89.9687
Mean Anonmoly251.7205
Mean Motion15.39617878
Decay Rate2.574E-05
L11 64912U 25157J 25354.25003472 .00002574 00000+0 74317-4 0 9997
L22 64912 53.1585 358.0779 0001331 89.9687 251.7205 15.39617878 5940



Live tracking and technical data element details for STARLINK-34711 (NORAD 64912). STARLINK-34711 can be tracked NOW for your location showing map with azimuth and elevation plus other details from your city location.







IsCatalogInMostPopularTable: catalog: 64912, numindb: 9
Update: records affected: 1



GetName: 64912 STARLINK-34711

Hit Count: updated at: Sat, 11 Apr 2026 21:23:44 GMT